Portada
METAR-TAF:

METAR-TAF

Aeroports :

Auburn/Lewiston Municipal Airport

Auburn-Lewiston, Maine, Estats Units d'Amèrica

latitud: 44-03N, longitud: 070-17W, altitud: 88 m

Observació

L'informe es va fer fa 29 minuts, a les 15:14 UTC
Vent 3 kt del Oest/Sud-Oest
Temperatura 3°C
Humitat 93%
Pressió 1008 hPa
Visibilitat: 6.4 km
Cel cobert a una alçada de 400 ft
boirina

METAR: KLEW 191514Z AUTO 24003KT 4SM BR OVC004 03/02 A2976 RMK AO2 UPE01 P0000

Hora: 10:43 (15:43 UTC)


TAF: manca

Observacions i pronòstics meteorològics de més de 4000 aeroports (METAR i TAF).

Les estacions disponibles són els punts grocs i vermells al mapa.

Posi el ratolí al punt desitjat per veure el nom de l'estació.

Feu clic per veure les observacions i els pronòstics meteorològics.

Per canviar el mapa: feu clic els botons verds amb una creu de color negre per apropar; al botó verd amb un guió per allunyar la imatge; o en les fletxes verdes per a mapes adjacents.


METAR-TAF: